• In Hungary
  • List of Countries
  • For 7 days
  • Water Temperature
  • Satellite Maps
  • Weather Map
  • News
  • Weather Widgets
  • user-avatar
    Login

    Hourly Weather Ninove

    Today, 18 June, Monday

    Time Temperature Precipitation Wind Pressure Humidity
    00:00 +14°C° 0 mm 3 mps 762 mmHg 85%
    01:00 +14°C° 0 mm 3 mps 762 mmHg 86%
    02:00 +14°C° 0 mm 4 mps 762 mmHg 88%
    03:00 +14°C° 0 mm 4 mps 762 mmHg 89%
    04:00 +15°C° 0 mm 4 mps 762 mmHg 89%
    05:00 +15°C° 0 mm 4 mps 762 mmHg 90%
    06:00 +15°C° 0 mm 5 mps 762 mmHg 90%
    07:00 +16°C° 0.1 mm 5 mps 762 mmHg 89%
    08:00 +16°C° 0.1 mm 5 mps 763 mmHg 89%
    09:00 +17°C° 0.1 mm 5 mps 763 mmHg 88%
    10:00 +17°C° 0.1 mm 5 mps 763 mmHg 85%
    11:00 +19°C° 0.1 mm 5 mps 763 mmHg 82%
    12:00 +20°C° 0.1 mm 5 mps 763 mmHg 78%
    13:00 +20°C° 0.1 mm 5 mps 763 mmHg 76%
    14:00 +20°C° 0.1 mm 5 mps 763 mmHg 74%
    15:00 +20°C° 0.1 mm 5 mps 763 mmHg 72%
    16:00 +20°C° 0 mm 5 mps 763 mmHg 73%
    17:00 +20°C° 0 mm 4 mps 763 mmHg 74%
    18:00 +20°C° 0 mm 4 mps 763 mmHg 76%
    19:00 +18°C° 0 mm 4 mps 764 mmHg 80%
    20:00 +17°C° 0 mm 3 mps 764 mmHg 85%
    21:00 +14°C° 0 mm 3 mps 764 mmHg 90%
    22:00 +14°C° 0 mm 3 mps 765 mmHg 91%
    23:00 +13°C° 0 mm 3 mps 765 mmHg 93%

    Tomorrow, 19 June, Tuesday

    Time Temperature Precipitation Wind Pressure Humidity
    00:00 +13°C° 0 mm 3 mps 765 mmHg 94%
    01:00 +13°C° 0 mm 3 mps 765 mmHg 95%
    02:00 +13°C° 0 mm 3 mps 765 mmHg 96%
    03:00 +13°C° 0 mm 3 mps 765 mmHg 97%
    04:00 +14°C° 0 mm 3 mps 765 mmHg 95%
    05:00 +15°C° 0 mm 4 mps 765 mmHg 94%
    06:00 +15°C° 0 mm 4 mps 765 mmHg 92%
    07:00 +17°C° 0 mm 4 mps 766 mmHg 90%
    08:00 +18°C° 0 mm 4 mps 766 mmHg 88%
    09:00 +19°C° 0 mm 4 mps 766 mmHg 86%
    10:00 +19°C° 0 mm 3 mps 766 mmHg 84%
    11:00 +20°C° 0 mm 3 mps 766 mmHg 82%
    12:00 +21°C° 0 mm 3 mps 766 mmHg 80%
    13:00 +21°C° 0 mm 3 mps 766 mmHg 78%
    14:00 +23°C° 0 mm 2 mps 766 mmHg 77%
    15:00 +23°C° 0 mm 2 mps 766 mmHg 76%
    16:00 +23°C° 0 mm 2 mps 766 mmHg 77%
    17:00 +23°C° 0 mm 2 mps 766 mmHg 79%
    18:00 +23°C° 0 mm 2 mps 766 mmHg 80%
    19:00 +21°C° 0 mm 1 mps 766 mmHg 84%
    20:00 +20°C° 0 mm 1 mps 766 mmHg 88%
    21:00 +19°C° 0 mm 1 mps 766 mmHg 91%
    22:00 +18°C° 0 mm 1 mps 766 mmHg 92%
    23:00 +18°C° 0 mm 1 mps 766 mmHg 93%

    Day after tomorrow, 20 June, Wednesday

    Time Temperature Precipitation Wind Pressure Humidity
    00:00 +15°C° 0 mm 0 mps 766 mmHg 93%
    01:00 +15°C° 0 mm 0 mps 766 mmHg 94%
    02:00 +15°C° 0 mm 0 mps 765 mmHg 94%
    03:00 +14°C° 0 mm 0 mps 765 mmHg 95%
    04:00 +16°C° 0 mm 1 mps 765 mmHg 92%
    05:00 +19°C° 0 mm 1 mps 765 mmHg 90%
    06:00 +20°C° 0 mm 1 mps 765 mmHg 88%
    07:00 +21°C° 0 mm 1 mps 765 mmHg 82%
    08:00 +23°C° 0 mm 1 mps 765 mmHg 76%
    09:00 +25°C° 0 mm 1 mps 765 mmHg 70%
    10:00 +26°C° 0 mm 1 mps 764 mmHg 66%
    11:00 +27°C° 0 mm 1 mps 764 mmHg 62%
    12:00 +28°C° 0 mm 1 mps 764 mmHg 58%
    13:00 +28°C° 0 mm 1 mps 763 mmHg 56%
    14:00 +29°C° 0 mm 1 mps 763 mmHg 55%
    15:00 +29°C° 0 mm 1 mps 763 mmHg 54%
    16:00 +28°C° 0 mm 2 mps 763 mmHg 59%
    17:00 +28°C° 0 mm 2 mps 762 mmHg 63%
    18:00 +27°C° 0 mm 2 mps 762 mmHg 67%
    19:00 +25°C° 0 mm 2 mps 762 mmHg 73%
    20:00 +23°C° 0 mm 2 mps 762 mmHg 78%
    21:00 +20°C° 0 mm 2 mps 762 mmHg 84%
    22:00 +19°C° 0 mm 2 mps 762 mmHg 84%
    23:00 +20°C° 0 mm 1 mps 762 mmHg 85%

    21 June, Thursday

    Time Temperature Precipitation Wind Pressure Humidity
    00:00 +19°C° 0 mm 1 mps 762 mmHg 85%
    01:00 +18°C° 0 mm 2 mps 761 mmHg 86%
    02:00 +17°C° 0 mm 2 mps 761 mmHg 86%
    03:00 +17°C° 0 mm 2 mps 761 mmHg 86%
    04:00 +17°C° 0 mm 3 mps 761 mmHg 86%
    05:00 +18°C° 0 mm 3 mps 761 mmHg 86%
    06:00 +18°C° 0 mm 3 mps 761 mmHg 86%
    07:00 +18°C° 0 mm 4 mps 761 mmHg 86%
    08:00 +17°C° 0 mm 5 mps 762 mmHg 85%
    09:00 +17°C° 0 mm 5 mps 762 mmHg 84%
    10:00 +17°C° 0 mm 6 mps 762 mmHg 80%
    11:00 +16°C° 0 mm 6 mps 763 mmHg 76%
    12:00 +16°C° 0 mm 6 mps 763 mmHg 72%
    13:00 +16°C° 0 mm 7 mps 763 mmHg 67%
    14:00 +16°C° 0 mm 7 mps 764 mmHg 62%
    15:00 +17°C° 0 mm 7 mps 764 mmHg 57%
    16:00 +16°C° 0 mm 7 mps 764 mmHg 60%
    17:00 +15°C° 0 mm 6 mps 765 mmHg 62%
    18:00 +14°C° 0 mm 6 mps 765 mmHg 65%
    19:00 +13°C° 0 mm 5 mps 765 mmHg 70%
    20:00 +11°C° 0 mm 4 mps 766 mmHg 75%
    21:00 +10°C° 0 mm 4 mps 766 mmHg 80%
    22:00 +10°C° 0 mm 3 mps 767 mmHg 82%
    23:00 +9°C° 0 mm 3 mps 767 mmHg 84%

    22 June, Friday

    Time Temperature Precipitation Wind Pressure Humidity
    00:00 +9°C° 0 mm 2 mps 767 mmHg 86%
    01:00 +9°C° 0 mm 3 mps 767 mmHg 87%
    02:00 +9°C° 0 mm 3 mps 767 mmHg 87%
    03:00 +9°C° 0 mm 3 mps 767 mmHg 88%
    04:00 +10°C° 0 mm 3 mps 767 mmHg 83%
    05:00 +11°C° 0 mm 4 mps 767 mmHg 77%
    06:00 +12°C° 0 mm 4 mps 767 mmHg 72%
    07:00 +13°C° 0 mm 5 mps 768 mmHg 68%
    08:00 +14°C° 0 mm 5 mps 768 mmHg 63%
    09:00 +15°C° 0 mm 5 mps 768 mmHg 58%
    10:00 +16°C° 0 mm 6 mps 768 mmHg 57%
    11:00 +16°C° 0 mm 6 mps 768 mmHg 56%
    12:00 +17°C° 0 mm 6 mps 767 mmHg 54%
    13:00 +17°C° 0 mm 6 mps 767 mmHg 55%
    14:00 +16°C° 0 mm 6 mps 767 mmHg 56%
    15:00 +16°C° 0 mm 6 mps 767 mmHg 56%
    16:00 +16°C° 0 mm 6 mps 767 mmHg 60%
    17:00 +15°C° 0 mm 5 mps 767 mmHg 63%
    18:00 +14°C° 0 mm 5 mps 767 mmHg 67%
    19:00 +13°C° 0 mm 4 mps 767 mmHg 72%
    20:00 +11°C° 0 mm 4 mps 768 mmHg 78%
    21:00 +10°C° 0 mm 3 mps 768 mmHg 83%
    22:00 +10°C° 0 mm 3 mps 768 mmHg 83%
    23:00 +10°C° 0 mm 3 mps 768 mmHg 84%

    23 June, Saturday

    Time Temperature Precipitation Wind Pressure Humidity
    00:00 +9°C° 0 mm 2 mps 768 mmHg 84%
    01:00 +9°C° 0 mm 2 mps 768 mmHg 85%
    02:00 +9°C° 0 mm 2 mps 768 mmHg 85%
    03:00 +9°C° 0 mm 2 mps 768 mmHg 85%
    04:00 +10°C° 0 mm 3 mps 768 mmHg 82%
    05:00 +11°C° 0 mm 3 mps 768 mmHg 79%
    06:00 +12°C° 0 mm 3 mps 768 mmHg 75%
    07:00 +12°C° 0 mm 4 mps 768 mmHg 74%
    08:00 +12°C° 0 mm 4 mps 768 mmHg 72%
    09:00 +13°C° 0 mm 4 mps 768 mmHg 70%
    10:00 +14°C° 0 mm 4 mps 768 mmHg 68%
    11:00 +14°C° 0 mm 5 mps 767 mmHg 65%
    12:00 +15°C° 0 mm 5 mps 767 mmHg 63%
    13:00 +15°C° 0 mm 5 mps 767 mmHg 63%
    14:00 +15°C° 0 mm 5 mps 767 mmHg 63%
    15:00 +15°C° 0 mm 5 mps 767 mmHg 63%
    16:00 +15°C° 0 mm 5 mps 767 mmHg 65%
    17:00 +15°C° 0 mm 4 mps 766 mmHg 67%
    18:00 +14°C° 0 mm 4 mps 766 mmHg 69%
    19:00 +13°C° 0 mm 4 mps 767 mmHg 74%
    20:00 +12°C° 0 mm 3 mps 767 mmHg 80%
    21:00 +10°C° 0 mm 2 mps 767 mmHg 85%
    22:00 +10°C° 0 mm 2 mps 767 mmHg 87%
    23:00 +9°C° 0 mm 2 mps 767 mmHg 89%
    Show more